This demonstration page uses our WeatherBlox Daily Observations layout. Learn more.

Left ArrowRight Arrow

Hourly Observations for April 24, 2019

Temp ( °F °C ) Dew Point ( °F °C ) Humidity (%) Winds ( mph kmh ) Pressure ( in mb ) Visibility ( mi km ) Precip ( " mm )
12:37 am 00:37 Cloudy 59 15 52 11.1 78 78 NE 15 24 29.94 1014 10 16 0.00 0.00
12:53 am 00:53 Partly Cloudy 59 15 52 11.1 78 78 NNE 17 28 29.89 1012 10 16 0.00 0.00
1:53 am 01:53 Clear 57 13.9 51 10.6 81 81 NE 10 17 29.88 1012 10 16 0.00 0.00
2:53 am 02:53 Clear 56 13.3 51 10.6 84 84 NNE 10 17 29.85 1011 10 16 0.00 0.00
3:53 am 03:53 Clear 55 12.8 51 10.6 87 87 NNE 10 17 29.86 1011 10 16 0.00 0.00
4:53 am 04:53 Mostly Cloudy 55 12.8 52 11.1 90 90 N 7 11 29.86 1011 10 16 0.00 0.00
5:06 am 05:06 Cloudy 55 12.8 52 11.1 90 90 NNW 9 15 29.92 1013 10 16 0.00 0.00
5:30 am 05:30 Cloudy 55 12.8 51 10.6 87 87 NNE 10 17 29.90 1013 10 16 0.00 0.00
5:53 am 05:53 Cloudy 55 12.8 51 10.6 87 87 N 14 22 29.84 1011 10 16 0.00 0.00
6:53 am 06:53 Cloudy with Thunderstorms 54 12.2 50 10 87 87 N 13 20 29.85 1011 10 16 0.01 0.25
7:06 am 07:06 Cloudy with Light Rain 54 12.2 51 10.6 90 90 NNW 6 9 29.94 1014 9 14 0.01 0.25
7:17 am 07:17 Cloudy with Light Rain 54 12.2 51 10.6 90 90 Calm 29.96 1015 7 11 0.02 0.51
7:39 am 07:39 Cloudy with Rain 54 12.2 52 11.1 93 93 WNW 8 13 29.98 1015 4 6 0.07 1.78
7:53 am 07:53 Cloudy with Nearby Thunderstorms 54 12.2 51 10.6 90 90 NW 7 11 29.92 1013 7 11 0.09 2.29
8:01 am 08:01 Cloudy with Light Rain 54 12.2 51 10.6 90 90 NNW 8 13 29.96 1015 7 11 0.01 0.25
8:12 am 08:12 Cloudy with Light Rain 54 12.2 52 11.1 93 93 NNW 7 11 29.95 1014 7 11 0.02 0.51
8:53 am 08:53 Cloudy 54 12.2 51 10.6 90 90 E 7 11 29.90 1012 10 16 0.03 0.76
9:53 am 09:53 Cloudy with Light Rain 55 12.8 52 11.1 90 90 Calm 29.94 1014 9 14 0.01 0.25
10:15 am 10:15 Cloudy 55 12.8 52 11.1 90 90 ENE 7 11 29.96 1015 9 14 0.00 0.03
10:53 am 10:53 Cloudy 55 12.8 52 11.1 90 90 N 12 19 29.93 1014 10 16 0.01 0.25
11:10 am 11:10 Cloudy 55 12.8 53 11.7 93 93 NNW 9 15 29.97 1015 10 16 0.00 0.00
11:12 am 11:12 Cloudy 55 12.8 53 11.7 93 93 NNW 12 19 29.97 1015 10 16 0.00 0.00
11:21 am 11:21 Cloudy 55 12.8 52 11.1 90 90 NNW 9 15 29.98 1015 10 16 0.00 0.00
11:38 am 11:38 Cloudy 56 13.3 52 11.1 87 87 NW 6 9 29.98 1015 10 16 0.00 0.00
11:53 am 11:53 Cloudy 56 13.3 52 11.1 87 87 NW 3 6 29.96 1014 9 14 0.00 0.00
12:01 pm 12:01 Cloudy with Light Rain 56 13.3 52 11.1 87 87 WNW 5 7 29.98 1015 9 14 0.00 0.03
12:38 pm 12:38 Mostly Cloudy 56 13.3 52 11.1 87 87 WSW 5 7 29.96 1014 10 16 0.00 0.03
12:53 pm 12:53 Mostly Sunny 57 13.9 52 11.1 83 83 WSW 5 7 29.92 1013 10 16 0.00 0.03
1:53 pm 13:53 Mostly Sunny 60 15.6 51 10.6 72 72 N 5 7 29.89 1012 10 16 0.00 0.00
2:53 pm 14:53 Sunny 62 16.7 50 10 65 65 NNW 7 11 29.86 1011 10 16 0.00 0.00
3:53 pm 15:53 Sunny 65 18.3 49 9.4 56 56 N 9 15 29.85 1011 10 16 0.00 0.00
4:53 pm 16:53 Sunny 65 18.3 49 9.4 56 56 NW 6 9 29.83 1010 10 16 0.00 0.00
5:53 pm 17:53 Sunny 66 18.9 48 8.9 52 52 NNW 5 7 29.81 1010 10 16 0.00 0.00
6:53 pm 18:53 Sunny 65 18.3 49 9.4 56 56 SE 3 6 29.81 1010 10 16 0.00 0.00
7:53 pm 19:53 Sunny 63 17.2 51 10.6 65 65 SSE 6 9 29.82 1010 10 16 0.00 0.00
8:53 pm 20:53 Clear 59 15 52 11.1 78 78 S 6 9 29.83 1010 10 16 0.00 0.00
9:53 pm 21:53 Clear 59 15 52 11.1 78 78 SE 5 7 29.84 1011 10 16 0.00 0.00
10:53 pm 22:53 Clear 57 13.9 51 10.6 81 81 S 3 6 29.86 1011 10 16 0.00 0.00
11:53 pm 23:53 Clear 55 12.8 51 10.6 87 87 SE 7 11 29.87 1012 10 16 0.00 0.00

Powered by AerisWeather